Altoona, PA

7:01 PM EST on November 18, 2019 (GMT -0500)
Altoona-Blair County

Weather History for KAOO - September, 2019

Change the Weather History Date:

Tuesday, September 24, 2019

  Actual Average Record
Temperature  
Mean Temperature 62 °F 59 °F  
Max Temperature 72 °F 69 °F 91 °F (1970)
Min Temperature 52 °F 48 °F 30 °F (1963)
Degree Days  
Heating Degree Days 3 7  
Month to date heating degree days 23 96  
Since 1 July heating degree days 32 128  
Cooling Degree Days 0 1  
Month to date cooling degree days 78 43  
Year to date cooling degree days 723 522  
Growing Degree Days 14 (Base 50)    
Moisture  
Dew Point 50 °F    
Average Humidity 62    
Maximum Humidity 80    
Minimum Humidity 44    
Precipitation  
Precipitation 0.00 in 0.11 in 1.37 in (2001)
Month to date precipitation 1.05 2.81  
Year to date precipitation 30.74 26.74  
Sea Level Pressure  
Sea Level Pressure 29.93 in    
Wind  
Wind Speed 7 mph (WNW)    
Max Wind Speed 20 mph    
Max Gust Speed 23 mph    
Visibility 10 miles    
Events      
T = Trace of Precipitation, MM = Missing Value Source: NWS Daily Summary

Daily Weather History Graph

Daily Weather History Graph

Search for Another Location

Airport or City:

Astronomy

Sep. 24, 2019 Rise Set
Actual Time 7:02 AM EDT 7:07 PM EDT
Civil Twilight 6:35 AM EDT 7:34 PM EDT
Nautical Twilight 6:03 AM EDT 8:06 PM EDT
Astronomical Twilight 5:31 AM EDT 8:38 PM EDT
Moon 1:44 AM EDT (9/24) 4:52 PM EDT (9/24)
Length of Visible Light 12h 59m
Length of Day
12h 04m
Waning Crescent, 23% of the Moon is Illuminated
Sep 24
Waning Crescent
Sep 28
New
Oct 5
First Quarter
Oct 13
Full
Oct 21
Last Quarter

Hourly Weather History & Observations

Time (EDT) Temp. Dew Point Humidity Pressure Visibility Wind Dir Wind Speed Gust Speed Precip Events Conditions
12:53 AM 62.1 °F 55.0 °F 78% 29.90 in 10.0 mi Calm Calm - N/A   Scattered Clouds
1:53 AM 62.1 °F 54.0 °F 75% 29.91 in 10.0 mi Calm Calm - N/A   Mostly Cloudy
2:53 AM 60.1 °F 53.1 °F 78% 29.89 in 10.0 mi Calm Calm - N/A   Scattered Clouds
3:53 AM 60.1 °F 53.1 °F 78% 29.90 in 10.0 mi WNW 5.8 mph - N/A   Partly Cloudy
4:53 AM 57.9 °F 52.0 °F 81% 29.90 in 10.0 mi West 3.5 mph - N/A   Clear
5:53 AM 57.0 °F 51.1 °F 81% 29.92 in 10.0 mi Calm Calm - N/A   Partly Cloudy
6:53 AM 57.0 °F 51.1 °F 81% 29.93 in 10.0 mi West 4.6 mph - N/A   Scattered Clouds
7:08 AM 57.9 °F 51.1 °F 78% 29.95 in 10.0 mi WNW 3.5 mph - N/A   Mostly Cloudy
7:53 AM 59.0 °F 52.0 °F 78% 29.94 in 10.0 mi NW 8.1 mph - N/A   Overcast
8:53 AM 61.0 °F 52.0 °F 72% 29.95 in 10.0 mi NW 10.4 mph - N/A   Mostly Cloudy
9:53 AM 63.0 °F 52.0 °F 67% 29.96 in 10.0 mi NW 12.7 mph 18.4 mph N/A   Mostly Cloudy
10:53 AM 64.9 °F 52.0 °F 63% 29.96 in 10.0 mi NNW 15.0 mph - N/A   Mostly Cloudy
11:00 AM 66.0 °F 52.0 °F 60% 29.98 in 10.0 mi NW 12.7 mph - N/A   Scattered Clouds
11:53 AM 66.9 °F 52.0 °F 59% 29.95 in 10.0 mi NW 10.4 mph - N/A   Mostly Cloudy
12:53 PM 66.9 °F 50.0 °F 54% 29.94 in 10.0 mi WNW 11.5 mph - N/A   Mostly Cloudy
1:53 PM 70.0 °F 50.0 °F 49% 29.94 in 10.0 mi NW 10.4 mph 19.6 mph N/A   Scattered Clouds
2:53 PM 69.1 °F 48.0 °F 47% 29.92 in 10.0 mi NW 12.7 mph - N/A   Mostly Cloudy
3:53 PM 71.1 °F 48.9 °F 45% 29.91 in 10.0 mi WNW 12.7 mph - N/A   Mostly Cloudy
4:53 PM 68.0 °F 48.9 °F 50% 29.91 in 10.0 mi NW 11.5 mph - N/A   Overcast
5:53 PM 68.0 °F 48.0 °F 49% 29.93 in 10.0 mi WNW 9.2 mph - N/A   Mostly Cloudy
6:53 PM 64.0 °F 48.0 °F 56% 29.93 in 10.0 mi WNW 5.8 mph - N/A   Clear
7:53 PM 62.1 °F 46.9 °F 58% 29.94 in 10.0 mi NW 3.5 mph - N/A   Clear
8:53 PM 60.1 °F 46.9 °F 62% 29.95 in 10.0 mi WNW 3.5 mph - N/A   Clear
9:53 PM 59.0 °F 46.9 °F 64% 29.95 in 10.0 mi WNW 3.5 mph - N/A   Clear
10:53 PM 55.0 °F 46.9 °F 74% 29.96 in 10.0 mi South 3.5 mph - N/A   Clear